| time (UTC) | temp F | wind direction | speed MPH | gust MPH | rain 1hr in | rain 24hr in | rain mn in | humidity % | barometer mb |
| 20260506152537 | 68 | 117 | 1.0 | 3.0 | 0.00 | 0.00 | 0.00 | 41 | 1016.6 |
| 20260506151516 | 67 | 117 | 1.0 | 3.0 | 0.00 | 0.00 | 0.00 | 42 | 1016.5 |
| 20260506150518 | 65 | 143 | 1.0 | 3.0 | 0.00 | 0.00 | 0.00 | 44 | 1016.5 |
| 20260506145517 | 64 | 130 | 1.0 | 4.0 | 0.00 | 0.00 | 0.00 | 45 | 1016.4 |
| 20260506144516 | 64 | 132 | 2.0 | 4.0 | 0.00 | 0.00 | 0.00 | 46 | 1016.3 |
| 20260506143516 | 63 | 131 | 1.0 | 4.0 | 0.00 | 0.00 | 0.00 | 48 | 1016.2 |
| 20260506142517 | 61 | 134 | 1.0 | 4.0 | 0.00 | 0.00 | 0.00 | 48 | 1016.2 |
| 20260506141518 | 60 | 127 | 1.0 | 3.0 | 0.00 | 0.00 | 0.00 | 49 | 1016.0 |
| 20260506140517 | 59 | 137 | 0.0 | 3.0 | 0.00 | 0.00 | 0.00 | 50 | 1015.9 |
| 20260506135517 | 58 | 133 | 2.0 | 4.0 | 0.00 | 0.00 | 0.00 | 50 | 1015.9 |
| 20260506134517 | 58 | 132 | 1.0 | 4.0 | 0.00 | 0.00 | 0.00 | 50 | 1015.8 |
| 20260506133517 | 57 | 129 | 0.0 | 2.0 | 0.00 | 0.00 | 0.00 | 51 | 1015.7 |
| 20260506132537 | 56 | 128 | 0.0 | 3.0 | 0.00 | 0.00 | 0.00 | 52 | 1015.6 |
| 20260506131517 | 55 | 92 | 0.0 | 2.0 | 0.00 | 0.00 | 0.00 | 53 | 1015.5 |
| 20260506130516 | 54 | 134 | 0.0 | 2.0 | 0.00 | 0.00 | 0.00 | 55 | 1015.4 |
| 20260506125516 | 54 | 133 | 0.0 | 3.0 | 0.00 | 0.00 | 0.00 | 55 | 1015.2 |
| 20260506124516 | 54 | 130 | 1.0 | 3.0 | 0.00 | 0.00 | 0.00 | 53 | 1015.1 |
| 20260506123517 | 54 | 135 | 1.0 | 3.0 | 0.00 | 0.00 | 0.00 | 53 | 1015.0 |
| 20260506122516 | 54 | 130 | 0.0 | 2.0 | 0.00 | 0.00 | 0.00 | 53 | 1014.9 |
| 20260506121516 | 54 | 129 | 0.0 | 2.0 | 0.00 | 0.00 | 0.00 | 52 | 1014.9 |
| 20260506120517 | 55 | 128 | 1.0 | 3.0 | 0.00 | 0.00 | 0.00 | 51 | 1014.8 |
| 20260506115517 | 54 | 128 | 0.0 | 2.0 | 0.00 | 0.00 | 0.00 | 51 | 1014.8 |
| 20260506114518 | 54 | 134 | 0.0 | 1.0 | 0.00 | 0.00 | 0.00 | 50 | 1014.8 |
| 20260506113521 | 54 | 122 | 0.0 | 2.0 | 0.00 | 0.00 | 0.00 | 50 | 1014.7 |
| 20260506112557 | 55 | 70 | 0.0 | 2.0 | 0.00 | 0.00 | 0.00 | 50 | 1014.7 |
| 20260506111517 | 55 | 134 | 1.0 | 3.0 | 0.00 | 0.00 | 0.00 | 50 | 1014.6 |
| 20260506110516 | 55 | 138 | 0.0 | 1.0 | 0.00 | 0.00 | 0.00 | 49 | 1014.5 |
| 20260506105516 | 55 | 144 | 0.0 | 2.0 | 0.00 | 0.00 | 0.00 | 50 | 1014.4 |
| 20260506104516 | 55 | 0.0 | 0.0 | 0.00 | 0.00 | 0.00 | 51 | 1014.3 | |
| 20260506103537 | 56 | 0.0 | 0.0 | 0.00 | 0.00 | 0.00 | 50 | 1014.3 | |
| 20260506102516 | 56 | 0.0 | 0.0 | 0.00 | 0.00 | 0.00 | 48 | 1014.3 | |
| 20260506101536 | 56 | 134 | 1.0 | 3.0 | 0.00 | 0.00 | 0.00 | 48 | 1014.2 |
| 20260506100536 | 57 | 133 | 0.0 | 1.0 | 0.00 | 0.00 | 0.00 | 48 | 1014.2 |
| 20260506095516 | 57 | 0.0 | 2.0 | 0.00 | 0.00 | 0.00 | 47 | 1014.1 | |
| 20260506094516 | 57 | 130 | 1.0 | 3.0 | 0.00 | 0.00 | 0.00 | 46 | 1014.1 |
| 20260506093516 | 57 | 0.0 | 2.0 | 0.00 | 0.00 | 0.00 | 47 | 1014.0 | |
| 20260506092517 | 58 | 79 | 1.0 | 4.0 | 0.00 | 0.00 | 0.00 | 47 | 1014.0 |
| 20260506091516 | 58 | 129 | 0.0 | 1.0 | 0.00 | 0.00 | 0.00 | 48 | 1013.8 |
| 20260506090516 | 58 | 0.0 | 0.0 | 0.00 | 0.00 | 0.00 | 48 | 1013.7 | |
| 20260506085517 | 58 | 0.0 | 1.0 | 0.00 | 0.00 | 0.00 | 47 | 1013.7 | |
| 20260506084516 | 58 | 0.0 | 0.0 | 0.00 | 0.00 | 0.00 | 47 | 1013.7 | |
| 20260506083516 | 59 | 0.0 | 0.0 | 0.00 | 0.00 | 0.00 | 48 | 1013.8 | |
| 20260506082537 | 60 | 0.0 | 0.0 | 0.00 | 0.00 | 0.00 | 47 | 1013.8 | |
| 20260506081516 | 60 | 0.0 | 0.0 | 0.00 | 0.00 | 0.00 | 46 | 1013.8 | |
| 20260506080516 | 60 | 0.0 | 0.0 | 0.00 | 0.00 | 0.00 | 45 | 1013.8 | |
| 20260506072516 | 61 | 0.0 | 0.0 | 0.00 | 0.00 | 0.00 | 45 | 1013.7 | |
| 20260506071516 | 61 | 0.0 | 0.0 | 0.00 | 0.00 | 0.00 | 47 | 1013.6 | |
| 20260506070521 | 61 | 0.0 | 0.0 | 0.00 | 0.00 | 0.00 | 44 | 1013.6 | |
| 20260506062517 | 63 | 0.0 | 0.0 | 0.00 | 0.00 | 0.00 | 40 | 1013.4 | |
| 20260506061515 | 64 | 0.0 | 0.0 | 0.00 | 0.00 | 0.00 | 38 | 1013.4 | |
| 20260506060537 | 65 | 0.0 | 0.0 | 0.00 | 0.00 | 0.00 | 38 | 1013.3 | |
| 20260506050516 | 68 | 274 | 1.0 | 4.0 | 0.00 | 0.00 | 0.00 | 34 | 1013.0 |
| 20260506044538 | 68 | 275 | 2.0 | 5.0 | 0.00 | 0.00 | 0.00 | 33 | 1012.7 |
| 20260506043516 | 68 | 274 | 2.0 | 5.0 | 0.00 | 0.00 | 0.00 | 33 | 1012.6 |
| 20260506042518 | 68 | 274 | 2.0 | 4.0 | 0.00 | 0.00 | 0.00 | 33 | 1012.6 |
| 20260506041516 | 69 | 265 | 1.0 | 4.0 | 0.00 | 0.00 | 0.00 | 32 | 1012.5 |
| 20260506040516 | 69 | 277 | 1.0 | 4.0 | 0.00 | 0.00 | 0.00 | 32 | 1012.4 |
| 20260506035516 | 70 | 271 | 1.0 | 5.0 | 0.00 | 0.00 | 0.00 | 31 | 1012.2 |
| 20260506034515 | 70 | 277 | 2.0 | 5.0 | 0.00 | 0.00 | 0.00 | 31 | 1012.0 |
| 20260506033535 | 70 | 289 | 3.0 | 6.0 | 0.00 | 0.00 | 0.00 | 30 | 1011.8 |
| 20260506032515 | 71 | 288 | 3.0 | 7.0 | 0.00 | 0.00 | 0.00 | 29 | 1011.7 |
| 20260506031515 | 71 | 281 | 3.0 | 6.0 | 0.00 | 0.00 | 0.00 | 29 | 1011.6 |
| 20260506030519 | 71 | 287 | 3.0 | 5.0 | 0.00 | 0.00 | 0.00 | 28 | 1011.3 |
| 20260506025516 | 72 | 291 | 2.0 | 5.0 | 0.00 | 0.00 | 0.00 | 28 | 1011.2 |
| 20260506024515 | 72 | 292 | 3.0 | 8.0 | 0.00 | 0.00 | 0.00 | 28 | 1011.1 |
| 20260506023515 | 72 | 285 | 3.0 | 7.0 | 0.00 | 0.00 | 0.00 | 28 | 1010.9 |
| 20260506022515 | 73 | 293 | 4.0 | 8.0 | 0.00 | 0.00 | 0.00 | 28 | 1010.8 |
| 20260506021516 | 73 | 281 | 5.0 | 11.0 | 0.00 | 0.00 | 0.00 | 28 | 1010.6 |
| 20260506020515 | 73 | 283 | 4.0 | 10.0 | 0.00 | 0.00 | 0.00 | 28 | 1010.4 |
| 20260506015515 | 74 | 287 | 7.0 | 13.0 | 0.00 | 0.00 | 0.00 | 27 | 1010.4 |
| 20260506014536 | 74 | 285 | 6.0 | 13.0 | 0.00 | 0.00 | 0.00 | 27 | 1010.3 |
| 20260506013516 | 74 | 281 | 5.0 | 12.0 | 0.00 | 0.00 | 0.00 | 27 | 1010.1 |
| 20260506012516 | 75 | 281 | 6.0 | 14.0 | 0.00 | 0.00 | 0.00 | 27 | 1010.2 |
| 20260506011516 | 75 | 290 | 7.0 | 12.0 | 0.00 | 0.00 | 0.00 | 27 | 1010.1 |
| 20260506010515 | 76 | 286 | 6.0 | 13.0 | 0.00 | 0.00 | 0.00 | 28 | 1010.0 |
| 20260506005515 | 75 | 288 | 7.0 | 13.0 | 0.00 | 0.00 | 0.00 | 27 | 1010.0 |
| 20260506004515 | 76 | 283 | 8.0 | 16.0 | 0.00 | 0.00 | 0.00 | 28 | 1009.8 |
| 20260506003516 | 76 | 281 | 6.0 | 14.0 | 0.00 | 0.00 | 0.00 | 27 | 1009.8 |
| 20260506002515 | 76 | 288 | 6.0 | 15.0 | 0.00 | 0.00 | 0.00 | 27 | 1009.8 |
| 20260506001516 | 77 | 278 | 7.0 | 13.0 | 0.00 | 0.00 | 0.00 | 27 | 1009.6 |
| 20260506000516 | 76 | 285 | 7.0 | 14.0 | 0.00 | 0.00 | 0.00 | 27 | 1009.6 |
| 20260505235515 | 76 | 277 | 7.0 | 14.0 | 0.00 | 0.00 | 0.00 | 27 | 1009.7 |
| 20260505234520 | 76 | 297 | 6.0 | 14.0 | 0.00 | 0.00 | 0.00 | 28 | 1009.6 |
| 20260505233515 | 77 | 292 | 6.0 | 16.0 | 0.00 | 0.00 | 0.00 | 28 | 1009.5 |
| 20260505232535 | 76 | 290 | 8.0 | 17.0 | 0.00 | 0.00 | 0.00 | 29 | 1009.4 |
| 20260505231515 | 77 | 278 | 7.0 | 15.0 | 0.00 | 0.00 | 0.00 | 28 | 1009.6 |
| 20260505230516 | 77 | 268 | 6.0 | 19.0 | 0.00 | 0.00 | 0.00 | 29 | 1009.5 |
| 20260505225515 | 76 | 286 | 7.0 | 14.0 | 0.00 | 0.00 | 0.00 | 29 | 1009.5 |
| 20260505224516 | 76 | 288 | 9.0 | 15.0 | 0.00 | 0.00 | 0.00 | 29 | 1009.6 |
| 20260505223515 | 76 | 289 | 6.0 | 13.0 | 0.00 | 0.00 | 0.00 | 30 | 1009.6 |
| 20260505222515 | 77 | 274 | 8.0 | 14.0 | 0.00 | 0.00 | 0.00 | 28 | 1010.0 |
| 20260505221515 | 77 | 241 | 4.0 | 12.0 | 0.00 | 0.00 | 0.00 | 31 | 1009.9 |
| 20260505220515 | 78 | 278 | 5.0 | 12.0 | 0.00 | 0.00 | 0.00 | 30 | 1010.1 |
| 20260505215515 | 77 | 229 | 4.0 | 12.0 | 0.00 | 0.00 | 0.00 | 31 | 1010.1 |
| 20260505214515 | 77 | 276 | 6.0 | 14.0 | 0.00 | 0.00 | 0.00 | 32 | 1010.2 |
| 20260505213516 | 77 | 267 | 3.0 | 11.0 | 0.00 | 0.00 | 0.00 | 33 | 1010.3 |
| 20260505212515 | 77 | 265 | 5.0 | 13.0 | 0.00 | 0.00 | 0.00 | 33 | 1010.4 |
| 20260505211515 | 78 | 273 | 5.0 | 14.0 | 0.00 | 0.00 | 0.00 | 34 | 1010.5 |
| 20260505210516 | 77 | 278 | 6.0 | 11.0 | 0.00 | 0.00 | 0.00 | 36 | 1010.6 |
| 20260505205515 | 76 | 290 | 4.0 | 10.0 | 0.00 | 0.00 | 0.00 | 38 | 1010.7 |
| 20260505204517 | 76 | 278 | 6.0 | 16.0 | 0.00 | 0.00 | 0.00 | 38 | 1010.8 |
| 20260505203557 | 76 | 275 | 6.0 | 14.0 | 0.00 | 0.00 | 0.00 | 37 | 1010.9 |
| 20260505202517 | 77 | 284 | 4.0 | 9.0 | 0.00 | 0.00 | 0.00 | 36 | 1010.9 |
| 20260505201517 | 76 | 267 | 2.0 | 9.0 | 0.00 | 0.00 | 0.00 | 37 | 1010.8 |
| 20260505200516 | 77 | 150 | 1.0 | 11.0 | 0.00 | 0.00 | 0.00 | 38 | 1011.0 |
| 20260505195518 | 78 | 199 | 2.0 | 11.0 | 0.00 | 0.00 | 0.00 | 36 | 1011.2 |
| 20260505194516 | 78 | 215 | 3.0 | 8.0 | 0.00 | 0.00 | 0.00 | 37 | 1011.2 |
| 20260505193516 | 76 | 121 | 2.0 | 6.0 | 0.00 | 0.00 | 0.00 | 40 | 1011.2 |
| 20260505192517 | 77 | 175 | 1.0 | 8.0 | 0.00 | 0.00 | 0.00 | 39 | 1011.3 |
| 20260505191517 | 75 | 188 | 2.0 | 8.0 | 0.00 | 0.00 | 0.00 | 42 | 1011.5 |
| 20260505190536 | 75 | 298 | 1.0 | 6.0 | 0.00 | 0.00 | 0.00 | 42 | 1011.7 |
| 20260505185517 | 74 | 189 | 3.0 | 15.0 | 0.00 | 0.00 | 0.00 | 42 | 1011.7 |
| 20260505184517 | 73 | 294 | 4.0 | 10.0 | 0.00 | 0.00 | 0.00 | 46 | 1011.7 |
| 20260505183517 | 75 | 229 | 4.0 | 17.0 | 0.00 | 0.00 | 0.00 | 43 | 1011.8 |
| 20260505182537 | 75 | 174 | 3.0 | 10.0 | 0.00 | 0.00 | 0.00 | 44 | 1011.9 |
| 20260505181516 | 75 | 184 | 4.0 | 10.0 | 0.00 | 0.00 | 0.00 | 44 | 1012.0 |
| 20260505180517 | 73 | 198 | 1.0 | 6.0 | 0.00 | 0.00 | 0.00 | 47 | 1011.9 |
| 20260505175537 | 73 | 159 | 3.0 | 9.0 | 0.00 | 0.00 | 0.00 | 49 | 1012.0 |
| 20260505174518 | 72 | 282 | 3.0 | 9.0 | 0.00 | 0.00 | 0.00 | 51 | 1012.0 |
| 20260505173517 | 72 | 200 | 2.0 | 6.0 | 0.00 | 0.00 | 0.00 | 53 | 1012.1 |
| 20260505172517 | 70 | 208 | 1.0 | 7.0 | 0.00 | 0.00 | 0.00 | 57 | 1012.1 |
| 20260505171522 | 69 | 250 | 1.0 | 7.0 | 0.00 | 0.00 | 0.00 | 62 | 1012.2 |
| 20260505170518 | 70 | 197 | 4.0 | 12.0 | 0.00 | 0.00 | 0.00 | 61 | 1012.2 |
| 20260505165516 | 72 | 173 | 3.0 | 7.0 | 0.00 | 0.00 | 0.00 | 52 | 1012.1 |
| 20260505164519 | 71 | 178 | 3.0 | 6.0 | 0.00 | 0.00 | 0.00 | 53 | 1012.0 |
| 20260505163541 | 70 | 222 | 3.0 | 6.0 | 0.00 | 0.00 | 0.00 | 56 | 1012.0 |
| 20260505162516 | 70 | 136 | 0.0 | 5.0 | 0.00 | 0.00 | 0.00 | 58 | 1012.0 |
| 20260505161516 | 69 | 211 | 1.0 | 6.0 | 0.00 | 0.00 | 0.00 | 59 | 1012.1 |
| 20260505160537 | 70 | 182 | 1.0 | 4.0 | 0.00 | 0.00 | 0.00 | 58 | 1012.1 |